CFG3ER EDDL-ESSA

Flight info

Callsign CFG3ER
Flight time N/A
Altitude 37000
Route MEVEL1Z MEVEL L179 OSNAD M170 BASUM DCT HAM DCT GIMRU DCT MIKNA N851 PELUP Z226 NILUG
Aircraft A320/M-SDE3FGHIRWY/LB1

Departure

Time 2026-05-06 13:28
Airport Düsseldorf Airport (EDDL)

Arrival

Time N/A
Airport Stockholm-Arlanda Airport (ESSA)
Time Latitude Longitude Altitude Speed Heading
2026-05-06 13:11 51.28565 6.77219 123 ft 0 kts 322°
2026-05-06 13:18 51.28554 6.77233 123 ft 4 kts 322°
2026-05-06 13:19 51.28535 6.77256 127 ft 4 kts 317°
2026-05-06 13:19 51.28521 6.77288 125 ft 4 kts 277°
2026-05-06 13:19 51.28525 6.77327 127 ft 4 kts 236°
2026-05-06 13:19 51.28542 6.77360 127 ft 4 kts 231°
2026-05-06 13:20 51.28545 6.77367 127 ft 1 kts 232°
2026-05-06 13:24 51.28542 6.77358 129 ft 6 kts 234°
2026-05-06 13:24 51.28514 6.77291 125 ft 7 kts 235°
2026-05-06 13:24 51.28467 6.77190 127 ft 14 kts 233°
2026-05-06 13:24 51.28411 6.77074 126 ft 11 kts 232°
2026-05-06 13:25 51.28356 6.76954 126 ft 13 kts 244°
2026-05-06 13:25 51.28382 6.76860 130 ft 11 kts 320°
2026-05-06 13:25 51.28457 6.76744 124 ft 9 kts 286°
2026-05-06 13:25 51.28435 6.76665 125 ft 16 kts 238°
2026-05-06 13:26 51.28355 6.76498 124 ft 18 kts 232°
2026-05-06 13:26 51.28283 6.76346 130 ft 18 kts 232°
2026-05-06 13:26 51.28204 6.76180 128 ft 15 kts 235°
2026-05-06 13:26 51.28191 6.76061 127 ft 6 kts 307°
2026-05-06 13:27 51.28258 6.76037 123 ft 14 kts 353°
2026-05-06 13:27 51.28352 6.76062 126 ft 16 kts 25°
2026-05-06 13:27 51.28483 6.76288 129 ft 56 kts 50°
2026-05-06 13:27 51.28880 6.77114 126 ft 128 kts 52°
2026-05-06 13:28 51.29517 6.78447 408 ft 159 kts 52°
2026-05-06 13:28 51.30190 6.79877 1174 ft 163 kts 51°
2026-05-06 13:28 51.30876 6.81334 1990 ft 167 kts 51°
2026-05-06 13:28 51.31604 6.82873 2426 ft 184 kts 53°
2026-05-06 13:29 51.32424 6.84605 2721 ft 207 kts 53°
2026-05-06 13:29 51.33348 6.86553 3061 ft 233 kts 52°
2026-05-06 13:29 51.34357 6.88734 3542 ft 253 kts 50°
2026-05-06 13:29 51.35641 6.90401 4244 ft 260 kts 23°
2026-05-06 13:30 51.37427 6.91032 4829 ft 267 kts
2026-05-06 13:30 51.39245 6.91430 4985 ft 268 kts
2026-05-06 13:30 51.41079 6.91923 5024 ft 268 kts 10°
2026-05-06 13:30 51.42320 6.92276 5027 ft 268 kts 10°
2026-05-06 13:31 51.43782 6.92695 5028 ft 268 kts 10°
2026-05-06 13:31 51.45614 6.93217 5028 ft 268 kts 10°
2026-05-06 13:31 51.47448 6.93735 5042 ft 269 kts 10°
2026-05-06 13:31 51.49195 6.94140 5702 ft 273 kts
2026-05-06 13:32 51.51093 6.93989 6660 ft 275 kts 350°
2026-05-06 13:32 51.52989 6.93457 7525 ft 279 kts 350°
2026-05-06 13:32 51.54909 6.92917 8366 ft 282 kts 350°
2026-05-06 13:32 51.56856 6.92369 9192 ft 286 kts 350°
2026-05-06 13:33 51.58831 6.91813 9992 ft 290 kts 350°
2026-05-06 13:33 51.60759 6.91271 10341 ft 310 kts 350°
2026-05-06 13:33 51.62965 6.90652 10614 ft 331 kts 350°
2026-05-06 13:33 51.65271 6.90009 11212 ft 340 kts 351°
2026-05-06 13:34 51.66838 6.89819 11666 ft 344 kts
2026-05-06 13:34 51.68983 6.90281 12296 ft 349 kts 14°
2026-05-06 13:34 51.71195 6.91724 12972 ft 353 kts 30°
2026-05-06 13:34 51.73157 6.94141 13648 ft 358 kts 46°
2026-05-06 13:35 51.74719 6.97290 14317 ft 361 kts 54°
2026-05-06 13:35 51.76217 7.00579 14965 ft 365 kts 54°
2026-05-06 13:35 51.77551 7.03505 15524 ft 368 kts 54°
2026-05-06 13:35 51.78691 7.06046 15981 ft 371 kts 54°
2026-05-06 13:36 51.80222 7.09430 16590 ft 375 kts 54°
2026-05-06 13:36 51.81777 7.12837 17187 ft 378 kts 54°
2026-05-06 13:36 51.83345 7.16268 17762 ft 382 kts 54°
2026-05-06 13:36 51.84712 7.19260 18262 ft 385 kts 54°
2026-05-06 13:37 51.86141 7.22931 18839 ft 387 kts 63°
2026-05-06 13:37 51.87417 7.26795 19393 ft 391 kts 59°
2026-05-06 13:37 51.89110 7.30247 19945 ft 395 kts 46°
2026-05-06 13:37 51.90831 7.33095 20456 ft 397 kts 45°
2026-05-06 13:38 51.92773 7.36293 21010 ft 400 kts 45°
2026-05-06 13:38 51.94738 7.39518 21553 ft 403 kts 45°
2026-05-06 13:38 51.95945 7.41497 21847 ft 405 kts 45°
2026-05-06 13:38 51.97934 7.44747 22367 ft 407 kts 45°
2026-05-06 13:39 51.99770 7.47757 22819 ft 410 kts 45°
2026-05-06 13:39 52.01773 7.51055 23297 ft 412 kts 46°
2026-05-06 13:39 52.03792 7.54392 23760 ft 415 kts 46°
2026-05-06 13:39 52.05813 7.57743 24205 ft 417 kts 46°
2026-05-06 13:40 52.07802 7.61044 24619 ft 419 kts 46°
2026-05-06 13:40 52.09844 7.64432 25028 ft 421 kts 46°
2026-05-06 13:40 52.11898 7.67850 25422 ft 423 kts 46°
2026-05-06 13:40 52.13821 7.71049 25776 ft 425 kts 46°
2026-05-06 13:41 52.15894 7.74495 26161 ft 427 kts 46°
2026-05-06 13:41 52.17978 7.77963 26536 ft 429 kts 46°
2026-05-06 13:41 52.20068 7.81448 26896 ft 431 kts 46°
2026-05-06 13:41 52.22163 7.84952 27252 ft 433 kts 46°
2026-05-06 13:42 52.24238 7.88430 27589 ft 434 kts 46°
2026-05-06 13:42 52.26347 7.91969 27925 ft 436 kts 46°
2026-05-06 13:42 52.28418 7.95450 28231 ft 438 kts 46°
2026-05-06 13:42 52.30472 7.98904 28511 ft 440 kts 46°
2026-05-06 13:43 52.32608 8.02497 28832 ft 441 kts 46°
2026-05-06 13:43 52.34751 8.06100 29125 ft 443 kts 46°
2026-05-06 13:43 52.36902 8.09723 29404 ft 444 kts 46°
2026-05-06 13:43 52.39036 8.13326 29667 ft 446 kts 46°
2026-05-06 13:44 52.41197 8.16995 29924 ft 448 kts 46°
2026-05-06 13:44 52.43320 8.20611 30169 ft 449 kts 46°
2026-05-06 13:44 52.45484 8.24302 30407 ft 451 kts 46°
2026-05-06 13:44 52.47668 8.28026 30602 ft 454 kts 46°
2026-05-06 13:45 52.49859 8.31761 30802 ft 456 kts 46°
2026-05-06 13:45 52.54181 8.39136 31267 ft 457 kts 46°
2026-05-06 13:45 52.56383 8.42903 31529 ft 457 kts 46°
2026-05-06 13:46 52.58583 8.46676 31780 ft 458 kts 46°
2026-05-06 13:46 52.60791 8.50467 32032 ft 458 kts 46°
2026-05-06 13:46 52.62915 8.54117 32275 ft 459 kts 46°
2026-05-06 13:46 52.65123 8.57915 32519 ft 460 kts 46°
2026-05-06 13:47 52.67286 8.61642 32772 ft 460 kts 47°
2026-05-06 13:47 52.69427 8.65340 33013 ft 460 kts 47°
2026-05-06 13:47 52.71636 8.69159 33265 ft 460 kts 47°
2026-05-06 13:47 52.73846 8.72992 33499 ft 461 kts 47°
2026-05-06 13:48 52.76048 8.76823 33737 ft 461 kts 47°
2026-05-06 13:48 52.78151 8.80438 33972 ft 461 kts 45°
2026-05-06 13:48 52.80455 8.84132 34222 ft 462 kts 43°
2026-05-06 13:48 52.82793 8.87658 34453 ft 462 kts 42°
2026-05-06 13:49 52.85066 8.90976 34688 ft 462 kts 41°
2026-05-06 13:49 52.87488 8.94485 34919 ft 462 kts 41°
2026-05-06 13:49 52.89899 8.98011 35134 ft 462 kts 42°
2026-05-06 13:49 52.92290 9.01571 35347 ft 462 kts 43°
2026-05-06 13:50 52.94651 9.05151 35556 ft 462 kts 43°
2026-05-06 13:50 52.97017 9.08774 35753 ft 462 kts 43°
2026-05-06 13:50 52.99372 9.12396 35950 ft 462 kts 43°
2026-05-06 13:50 53.01549 9.15746 36109 ft 463 kts 43°
2026-05-06 13:51 53.03914 9.19381 36290 ft 463 kts 43°
2026-05-06 13:51 53.06279 9.23003 36458 ft 463 kts 43°
2026-05-06 13:51 53.08652 9.26639 36623 ft 464 kts 43°
2026-05-06 13:51 53.11018 9.30273 36819 ft 462 kts 43°
2026-05-06 13:52 53.15600 9.37322 36886 ft 456 kts 43°
2026-05-06 13:52 53.20168 9.44373 36886 ft 455 kts 43°
2026-05-06 13:53 53.24732 9.51445 36878 ft 455 kts 43°
2026-05-06 13:53 53.29335 9.58594 36884 ft 454 kts 43°
2026-05-06 13:54 53.33814 9.65576 36888 ft 454 kts 43°
2026-05-06 13:54 53.38406 9.72768 36885 ft 454 kts 43°
2026-05-06 13:55 53.42938 9.79888 36891 ft 454 kts 43°
2026-05-06 13:55 53.47548 9.87133 36900 ft 454 kts 43°
2026-05-06 13:56 53.52156 9.94389 36903 ft 454 kts 44°
2026-05-06 13:56 53.56748 10.01674 36905 ft 454 kts 44°
2026-05-06 13:57 53.61157 10.08692 36899 ft 454 kts 44°
2026-05-06 13:57 53.65746 10.16009 36906 ft 453 kts 44°
2026-05-06 13:58 53.70521 10.22926 36900 ft 453 kts 36°
2026-05-06 13:58 53.75261 10.28773 36905 ft 453 kts 36°
2026-05-06 13:59 53.80006 10.34665 36903 ft 453 kts 37°
2026-05-06 13:59 53.84585 10.40363 36905 ft 454 kts 37°
2026-05-06 14:00 53.89137 10.46051 36910 ft 454 kts 37°
2026-05-06 14:00 53.93962 10.52082 36905 ft 454 kts 37°
2026-05-06 14:01 53.98987 10.58394 36901 ft 454 kts 37°
2026-05-06 14:01 54.04050 10.64782 36906 ft 453 kts 37°
2026-05-06 14:02 54.09117 10.71175 36904 ft 453 kts 37°
2026-05-06 14:02 54.14179 10.77591 36891 ft 453 kts 37°
2026-05-06 14:03 54.19237 10.84015 36896 ft 453 kts 37°
2026-05-06 14:03 54.24267 10.90425 36895 ft 454 kts 37°
2026-05-06 14:04 54.29198 10.96728 36908 ft 453 kts 37°
2026-05-06 14:04 54.34249 11.03203 36897 ft 453 kts 37°
2026-05-06 14:05 54.39292 11.09681 36897 ft 453 kts 37°
2026-05-06 14:05 54.44246 11.16085 36893 ft 453 kts 37°
2026-05-06 14:06 54.49314 11.22652 36894 ft 453 kts 37°
2026-05-06 14:06 54.54318 11.29151 36907 ft 454 kts 37°
2026-05-06 14:07 54.59367 11.35614 36906 ft 455 kts 36°
2026-05-06 14:07 54.64517 11.41952 36908 ft 455 kts 35°
2026-05-06 14:08 54.69671 11.48255 36909 ft 455 kts 36°
2026-05-06 14:08 54.74758 11.54560 36917 ft 455 kts 36°
2026-05-06 14:09 54.79879 11.60973 36923 ft 455 kts 36°
2026-05-06 14:09 54.85006 11.67398 36917 ft 454 kts 36°
2026-05-06 14:10 54.90131 11.73828 36928 ft 454 kts 36°
2026-05-06 14:10 54.95255 11.80280 36928 ft 455 kts 36°
2026-05-06 14:11 55.00373 11.86756 36921 ft 455 kts 36°
2026-05-06 14:11 55.05130 11.92779 36919 ft 455 kts 36°
2026-05-06 14:12 55.10242 11.99278 36930 ft 455 kts 36°
2026-05-06 14:12 55.15323 12.05767 36928 ft 455 kts 36°
2026-05-06 14:13 55.20439 12.12327 36930 ft 456 kts 36°
2026-05-06 14:13 55.25554 12.18897 36932 ft 456 kts 36°
2026-05-06 14:14 55.30641 12.25446 36936 ft 456 kts 37°
2026-05-06 14:14 55.35753 12.32051 36936 ft 456 kts 37°
2026-05-06 14:15 55.40798 12.38592 36936 ft 456 kts 37°
2026-05-06 14:15 55.45874 12.45202 36934 ft 457 kts 37°
2026-05-06 14:16 55.50978 12.51858 36936 ft 457 kts 37°
2026-05-06 14:16 55.56085 12.58535 36937 ft 457 kts 37°
2026-05-06 14:17 55.61023 12.65003 36935 ft 457 kts 37°
2026-05-06 14:17 55.65922 12.71471 36940 ft 457 kts 37°
2026-05-06 14:18 55.71016 12.78219 36940 ft 457 kts 37°
2026-05-06 14:18 55.76106 12.84984 36942 ft 457 kts 37°
2026-05-06 14:19 55.80874 12.91315 36946 ft 458 kts 37°
2026-05-06 14:19 55.85924 12.98060 36951 ft 458 kts 37°
2026-05-06 14:20 55.91008 13.04889 36951 ft 457 kts 37°
2026-05-06 14:20 55.95660 13.11144 36953 ft 458 kts 37°
2026-05-06 14:21 55.99687 13.16581 36954 ft 458 kts 38°
2026-05-06 14:21 56.05544 13.24501 36942 ft 458 kts 37°
2026-05-06 14:22 56.10631 13.31386 36939 ft 459 kts 37°
2026-05-06 14:22 56.14893 13.37180 36942 ft 459 kts 37°